Regional Weather Roundup
Issued by NWS

Home | Current Version | Previous Version | Text Only | Print | Product List | Glossary Off
Versions: 1 2 3 4 5 6 7 8 9 10 11 12 13 14 15 16 17 18 19 20 21 22 23 24 25 26 27 28 29 30 31 32 33 34 35 36 37 38 39 40 41 42 43 44 45 46 47 48 49 50

000
ASUS43 KMKX 200921
RWRWI

WISCONSIN REGIONAL WEATHER ROUNDUP
NATIONAL WEATHER SERVICE MILWAUKEE/SULLIVAN WI
400 AM CDT SAT SEP 20 2014

NOTE: "FAIR" INDICATES FEW OR NO CLOUDS BELOW 12,000 FEET WITH NO
SIGNIFICANT WEATHER AND/OR OBSTRUCTIONS TO VISIBILITY.

WIZ001-002-006>008-014>016-023>028-201000-
NORTHWEST WISCONSIN

CITY           SKY/WX    TMP DP  RH WIND       PRES   REMARKS
SUPERIOR ARPT  MOCLDY    58  58 100 W6        29.58S FOG
ASHLAND        MOCLDY    65  63  93 SW9       29.57F
HAYWARD        MOCLDY    64  64 100 SW6       29.62F FOG
SIREN          CLOUDY    67  65  90 SW9       29.63F
RICE LAKE      CLOUDY    67  65  92 SW9       29.67F FOG
LADYSMITH      CLOUDY    67  65  93 SW8       29.68R
EAU CLAIRE     CLOUDY    68  63  84 SW12      29.68R
MENOMONIE      CLOUDY    69  64  83 SW9       29.68S
NEW RICHMOND   CLOUDY    66  65  94 SW10      29.67F
OSCEOLA        CLOUDY    68  68 100 SW8       29.68F
$$

WIZ003>005-009-010-017-018-201000-
NORTH CENTRAL WISCONSIN

CITY           SKY/WX    TMP DP  RH WIND       PRES   REMARKS
WOODRUFF       CLOUDY    64  61  90 SW7       29.67S
RHINELANDER    CLOUDY    63  59  87 SW10      29.70S
EAGLE RIVER    CLOUDY    63  58  82 SW8       29.67S
LAND O LAKES   CLOUDY    64  59  86 SW6       29.67R
PHILLIPS       CLOUDY    65  63  94 SW12      29.66R
TOMAHAWK       CLOUDY    64  60  87 S3        29.70R
MEDFORD        CLOUDY    63  61  93 S9        29.71R
MERRILL        CLOUDY    65  62  90 SW8       29.70S
$$

WIZ029-030-035-036-043>047-201000-
CENTRAL WISCONSIN

CITY           SKY/WX    TMP DP  RH WIND       PRES   REMARKS
WAUSAU         CLOUDY    64  60  87 SW14      29.71S
MOSINEE        CLOUDY    63  61  94 SW12      29.74S
MARSHFIELD     LGT RAIN  65  63  93 W9        29.73S FOG
STEVENS POINT  CLOUDY    63  61  94 SW14      29.75F
WAUPACA        LGT RAIN  65  63  96 SW8       29.76F
WAUTOMA        LGT RAIN  63  62  96 S10       29.79F FOG
WISC RAPIDS    LGT RAIN  65  63  93 NW13G23   29.78R
CAMP DOUGLAS   LGT RAIN  66  66 100 S14G22    29.76F
$$

WIZ011>013-019>022-031-037>040-048>050-201000-
NORTHEAST WISCONSIN

CITY           SKY/WX    TMP DP  RH WIND       PRES   REMARKS
ANTIGO         CLOUDY    62  59  88 SW14      29.71F
STURGEON BAY   CLOUDY    61  55  82 SW16      29.74S THUNDER
GREEN BAY      TSTM      61  60  97 S10       29.75F FOG
MANITOWOC      TSTM      64  60  87 SW15G24   29.78F
APPLETON       RAIN      61  59  94 SW17      29.77S
CLINTONVILLE   RAIN      63  61  94 SW10      29.73S
OSHKOSH        LGT RAIN  63  60  90 SW14G23   29.78F
$$

WIZ032>034-041-042-053>061-201000-
SOUTHWEST WISCONSIN

CITY           SKY/WX    TMP DP  RH WIND       PRES   REMARKS
LA CROSSE      CLOUDY    69  62  78 CALM      29.74R
SPARTA         LGT RAIN  65  62  89 NW18G25   29.74F
VIROQUA        PTSUNNY   64  64 100 S8        29.78F
BOSCOBEL       CLOUDY    67  63  87 S7        29.84F
PRAIRIE DU CHI LGT RAIN  64  63  96 SE3       29.84F
PLATTEVILLE    MOCLDY    64  62  94 SW6       29.90F
$$

WIZ056-057-062-063-064-067-068-201000-
SOUTH CENTRAL WISCONSIN

CITY           SKY/WX    TMP DP  RH WIND       PRES   REMARKS
BARABOO/DELLS  RAIN      63  60  90 SW8       29.84R
LONE ROCK      LGT RAIN  69  62  78 SW5       29.84F
WATERTOWN      CLOUDY    65  58  79 W12       29.87R
MADISON        LGT RAIN  66  60  81 SW10G21   29.87S
MIDDLETON      CLOUDY    67  60  78 SW14G20   29.87F
MONROE         RAIN      63  57  82 W15       29.93R
JANESVILLE     CLOUDY    64  54  68 SW8       29.87R
$$

WIZ051-052-058>065-066-070>072-201000-
SOUTHEAST WISCONSIN

CITY           SKY/WX    TMP DP  RH WIND       PRES   REMARKS
MILWAUKEE      CLOUDY    64  53  67 SW18G26   29.84R
WAUKESHA       CLOUDY    63  54  72 SW12G21   29.86F
MILWAUKEE/TIMM CLOUDY    64  52  63 SW17G23   29.84F
RACINE         CLOUDY    66  54  65 SW12      29.88R
BURLINGTON     CLOUDY    62  54  73 SW14G20   29.88R
KENOSHA        CLOUDY    64  54  69 SW12      29.89R
FOND DU LAC    RAIN      62  58  86 SW15G24   29.80F FOG
SHEBOYGAN      LGT RAIN  66  57  72 SW20G28   29.82R
WEST BEND      CLOUDY    64  54  68 W18G26    29.86R
JUNEAU         HVY RAIN  63  57  82 SW10      29.87R
$$

LSZ147-162-201000-
LAKE SUPERIOR

STATION/POSITION TIME  TEMP    WIND        PRES    WAVE
                       AIR SEA DIR/SP/G            HT/PER
                 (UTC) (F)     (DEG/KT/KT) (MB)    (FT/S)
W MID LAKE BUOY  0850   55 48  240/  8/ 10 1000.4F   1
DEVILS ISLAND    0900   61     220/ 12/ 13 1000.5F
PORT WING        0840   62     250/  2/  3 1001.7F
SAXON HARBOR     0800   68     200/  7/ 12 1002.0F
$$

LMZ867-665-643>646-201000-
LAKE MICHIGAN

STATION/POSITION TIME  TEMP    WIND        PRES    WAVE
                       AIR SEA DIR/SP/G            HT/PER
                 (UTC) (F)     (DEG/KT/KT) (MB)    (FT/S)
N MID LAKE BUOY  0850   60 58  210/ 21/ 27 1005.4F   8/ 8
NORTHPORT PIER   0800   60     170/  5/ 12 1006.1F
SISTER BAY       0742          180/ 11/ 13   N/A
KEWAUNEE LAKESHO 0900   62     230/  9/ 15 1006.5F
SHEBOYGAN LAKESH 0900   68 55  230/ 18/ 26 1009.2R
PORT WASHINGTON  0900   68     250/ 11/ 24 1010.5R
ATWATER BUOY     0900   66     210/ 16/ 23 1011.3F
MILWAUKEE LAKESH 0900   67     230/ 17/ 21   N/A
S MID LAKE BUOY  0850   65 64  200/ 21/ 25 1011.6R   4/ 5
KENOSHA   LAKESH 0900   67     230/ 10/ 17 1011.9R
$$

TC  - TEMPERATURE IN CELSIUS
VSB - VISIBILITY IN STATUTE MILES
WCI - WIND CHILL INDEX
HX  - HEAT INDEX




USA.gov is the U.S. government's official web portal to all federal, state and local government web resources and services.